SP2WPY-13 Weather Reports


time (UTC)temp
F
wind
direction
speed
knots
gust
knots
rain 1hr
in
rain 24hr
in
rain mn
in
humidity
%
barometer
mb
20260507021113 41 19 4.3 0.0 0.00 0.00 0.00 100 1013.4
20260507020639 41 349 3.5 0.0 0.00 0.00 0.00 100 1013.3
20260507020120 41 54 4.3 0.0 0.00 0.00 0.00 100 1013.3
20260507015645 41 0 4.3 0.0 0.00 0.00 0.00 100 1013.3
20260507015125 41 44 4.3 0.0 0.00 0.00 0.00 100 1013.3
20260507014605 41 18 5.2 0.0 0.00 0.00 0.00 100 1013.3
20260507014132 41 27 6.1 0.0 0.00 0.00 0.00 100 1013.2
20260507013613 41 23 10.4 0.0 0.00 0.00 0.00 100 1013.2
20260507013138 41 31 9.6 0.0 0.00 0.00 0.00 100 1013.4
20260507012619 41 39 5.2 0.0 0.00 0.00 0.00 100 1013.4
20260507012145 41 21 6.1 0.0 0.00 0.00 0.00 100 1013.3
20260507011624 41 28 7.0 0.0 0.00 0.00 0.00 100 1013.1
20260507011106 41 19 10.4 0.0 0.00 0.00 0.00 100 1013.1
20260507010631 41 15 4.3 0.0 0.00 0.00 0.00 100 1013.1
20260507010111 41 45 6.1 0.0 0.00 0.00 0.00 100 1013.0
20260507005637 41 28 7.0 0.0 0.00 0.00 0.00 100 1012.8
20260507005118 41 20 7.8 0.0 0.00 0.00 0.00 100 1012.8
20260507004643 41 18 3.5 0.0 0.00 0.00 0.00 100 1012.7
20260507004125 41 14 6.1 0.0 0.00 0.00 0.00 100 1012.7
20260507003605 41 24 12.2 0.0 0.00 0.00 0.00 100 1012.5
20260507003130 41 17 9.6 0.0 0.00 0.00 0.00 100 1012.3
20260507002610 41 32 7.0 0.0 0.00 0.00 0.00 100 1012.5
20260507002136 41 14 7.0 0.0 0.00 0.00 0.00 100 1012.6
20260507001617 41 352 7.8 0.0 0.00 0.00 0.00 100 1012.5
20260507001142 41 18 9.6 0.0 0.00 0.00 0.00 100 1012.6
20260507000624 41 2 5.2 0.0 0.00 0.00 0.00 100 1012.5
20260507000104 41 31 9.6 0.0 0.00 0.00 0.00 100 1012.6
20260506235629 41 4 5.2 0.0 0.00 0.00 0.00 100 1012.6
20260506235110 41 2 5.2 0.0 0.00 0.00 0.00 100 1012.5
20260506234636 41 349 5.2 0.0 0.00 0.00 0.00 100 1012.6
20260506234117 41 22 7.0 0.0 0.00 0.00 0.00 100 1012.6
20260506233643 41 20 8.7 0.0 0.00 0.00 0.00 100 1012.3
20260506233123 41 7 6.1 0.0 0.00 0.00 0.00 100 1012.2
20260506232603 41 357 7.8 0.0 0.00 0.00 0.00 100 1012.3
20260506232130 41 9 7.0 0.0 0.00 0.00 0.00 100 1012.5
20260506231609 41 17 8.7 0.0 0.00 0.00 0.00 100 1012.5
20260506231136 41 18 8.7 0.0 0.00 0.00 0.00 100 1012.6
20260506230616 41 29 5.2 0.0 0.00 0.00 0.00 100 1012.5
20260506230142 41 20 3.5 0.0 0.00 0.00 0.00 100 1012.5
20260506225622 41 39 7.8 0.0 0.00 0.00 0.00 100 1012.5
20260506225102 41 6 7.0 0.0 0.00 0.00 0.00 100 1012.5
20260506224629 41 23 7.8 0.0 0.00 0.00 0.00 100 1012.5
20260506224109 41 31 7.8 0.0 0.00 0.00 0.00 100 1012.6
20260506223635 41 342 2.6 0.0 0.00 0.00 0.00 100 1012.5
20260506223116 41 70 4.3 0.0 0.00 0.00 0.00 100 1012.3
20260506222641 42 60 5.2 0.0 0.00 0.00 0.00 100 1012.5
20260506222122 42 14 5.2 0.0 0.00 0.00 0.00 100 1012.6
20260506221603 42 22 4.3 0.0 0.00 0.00 0.00 100 1012.3
20260506221128 42 72 3.5 0.0 0.00 0.00 0.00 100 1012.5
20260506220608 42 354 2.6 0.0 0.00 0.00 0.00 100 1012.3
20260506220134 42 37 7.8 0.0 0.00 0.00 0.00 100 1012.2
20260506215615 42 25 7.8 0.0 0.00 0.00 0.00 100 1012.3
20260506215140 42 42 7.0 0.0 0.00 0.00 0.00 100 1012.1
20260506214621 42 36 7.0 0.0 0.00 0.00 0.00 100 1012.1
20260506214101 42 11 7.0 0.0 0.00 0.00 0.00 100 1012.1
20260506213628 42 4 4.3 0.0 0.00 0.00 0.00 100 1012.2
20260506213108 41 11 5.2 0.0 0.00 0.00 0.00 100 1012.2
20260506212634 41 32 7.0 0.0 0.00 0.00 0.00 100 1012.2
20260506212114 41 15 5.2 0.0 0.00 0.00 0.00 100 1012.2
20260506211641 41 25 8.7 0.0 0.00 0.00 0.00 100 1012.2
20260506211121 41 44 7.0 0.0 0.00 0.00 0.00 100 1012.1
20260506210601 41 35 9.6 0.0 0.00 0.00 0.00 100 1012.1
20260506210126 41 36 7.8 0.0 0.00 0.00 0.00 100 1012.0
20260506205608 41 46 7.8 0.0 0.00 0.00 0.00 100 1012.1
20260506205133 41 60 6.1 0.0 0.00 0.00 0.00 100 1012.1
20260506204613 41 15 5.2 0.0 0.00 0.00 0.00 100 1012.0
20260506204141 41 32 8.7 0.0 0.00 0.00 0.00 100 1011.7
20260506203620 41 28 6.1 0.0 0.00 0.00 0.00 100 1011.6
20260506203101 41 48 6.1 0.0 0.00 0.00 0.00 100 1011.7
20260506202628 41 54 9.6 0.0 0.00 0.00 0.00 100 1011.7
20260506202107 41 33 9.6 0.0 0.00 0.00 0.00 100 1011.6
20260506201633 41 37 9.6 0.0 0.00 0.00 0.00 100 1011.6
20260506201114 41 39 7.8 0.0 0.00 0.00 0.00 100 1011.7
20260506200640 41 39 13.0 0.0 0.00 0.00 0.00 100 1011.7
20260506200120 41 39 9.6 0.0 0.00 0.00 0.00 100 1011.8
20260506195646 41 44 7.8 0.0 0.00 0.00 0.00 100 1011.8
20260506195127 41 33 7.8 0.0 0.00 0.00 0.00 100 1011.8
20260506194607 41 37 8.7 0.0 0.00 0.00 0.00 100 1011.9
20260506194133 41 35 11.3 0.0 0.00 0.00 0.00 100 1011.9
20260506193614 41 32 10.4 0.0 0.00 0.00 0.00 100 1011.7
20260506193139 41 46 7.0 0.0 0.00 0.00 0.00 100 1011.8
20260506192619 41 29 7.0 0.0 0.00 0.00 0.00 100 1011.8
20260506192146 41 15 8.7 0.0 0.00 0.00 0.00 100 1011.8
20260506191625 41 51 6.1 0.0 0.00 0.00 0.00 100 1011.8
20260506191106 41 51 7.8 0.0 0.00 0.00 0.00 100 1011.7
20260506190632 41 48 7.0 0.0 0.00 0.00 0.00 100 1011.7
20260506190113 41 52 7.0 0.0 0.00 0.00 0.00 100 1011.6
20260506185639 41 63 8.7 0.0 0.00 0.00 0.00 100 1011.6
20260506185118 41 43 8.7 0.0 0.00 0.00 0.00 100 1011.7
20260506184645 41 23 10.4 0.0 0.00 0.00 0.00 100 1011.7
20260506184126 41 13 6.1 0.0 0.00 0.00 0.00 100 1011.6
20260506183605 42 35 11.3 0.0 0.00 0.00 0.00 100 1011.4
20260506183132 42 13 7.0 0.0 0.00 0.00 0.00 100 1011.4
20260506182612 42 29 8.7 0.0 0.00 0.00 0.00 100 1011.3
20260506182138 41 6 7.8 0.0 0.00 0.00 0.00 100 1011.3
20260506181618 41 41 9.6 0.0 0.00 0.00 0.00 100 1011.3
20260506181145 41 34 11.3 0.0 0.00 0.00 0.00 100 1011.1
20260506180625 41 49 6.1 0.0 0.00 0.00 0.00 100 1011.2
20260506180105 41 42 7.0 0.0 0.00 0.00 0.00 100 1011.2
20260506175631 41 37 7.8 0.0 0.00 0.00 0.00 100 1011.2
20260506175112 41 44 8.7 0.0 0.00 0.00 0.00 100 1011.0
20260506174638 41 37 6.1 0.0 0.00 0.00 0.00 100 1011.2
20260506174118 41 48 10.4 0.0 0.00 0.00 0.00 100 1011.1
20260506173644 41 40 8.7 0.0 0.00 0.00 0.00 100 1011.1
20260506173125 41 39 7.0 0.0 0.00 0.00 0.00 100 1011.1
20260506172605 41 36 8.7 0.0 0.00 0.00 0.00 100 1011.0
20260506172131 41 39 8.7 0.0 0.00 0.00 0.00 100 1011.1
20260506171611 41 34 8.7 0.0 0.00 0.00 0.00 100 1011.0
20260506171138 42 29 8.7 0.0 0.00 0.00 0.00 100 1011.1
20260506170617 42 9 7.8 0.0 0.00 0.00 0.00 100 1011.0
20260506170143 42 27 7.0 0.0 0.00 0.00 0.00 100 1011.1
20260506165624 42 37 11.3 0.0 0.00 0.00 0.00 100 1011.0
20260506165105 42 13 7.0 0.0 0.00 0.00 0.00 100 1011.0
20260506164630 42 23 5.2 0.0 0.00 0.00 0.00 100 1011.0
20260506164110 42 47 7.0 0.0 0.00 0.00 0.00 100 1011.0
20260506163637 42 60 6.1 0.0 0.00 0.00 0.00 100 1011.1
20260506163117 42 25 9.6 0.0 0.00 0.00 0.00 100 1011.1
20260506162643 42 34 6.1 0.0 0.00 0.00 0.00 100 1011.0
20260506162123 42 58 6.1 0.0 0.00 0.00 0.00 100 1011.1
20260506161604 42 51 8.7 0.0 0.00 0.00 0.00 100 1011.1
20260506161130 42 41 6.1 0.0 0.00 0.00 0.00 100 1011.1
20260506160610 42 47 7.0 0.0 0.00 0.00 0.00 100 1010.9
20260506160135 42 51 3.5 0.0 0.00 0.00 0.00 100 1011.0
20260506155616 42 20 6.1 0.0 0.00 0.00 0.00 100 1011.0
20260506155142 42 42 10.4 0.0 0.00 0.00 0.00 100 1011.1
20260506154623 42 47 8.7 0.0 0.00 0.00 0.00 100 1011.0
20260506154103 42 39 12.2 0.0 0.00 0.00 0.00 100 1011.0
20260506153628 42 59 8.7 0.0 0.00 0.00 0.00 100 1011.1
20260506153110 42 60 6.1 0.0 0.00 0.00 0.00 100 1011.2
20260506152635 42 58 6.1 0.0 0.00 0.00 0.00 100 1011.1
20260506152116 42 50 7.8 0.0 0.00 0.00 0.00 100 1011.1
20260506151642 42 45 10.4 0.0 0.00 0.00 0.00 100 1011.1
20260506151122 42 62 8.7 0.0 0.00 0.00 0.00 100 1011.0
20260506150602 42 56 8.7 0.0 0.00 0.00 0.00 100 1011.0
20260506150129 42 41 12.2 0.0 0.00 0.00 0.00 100 1011.0
20260506145608 42 59 8.7 0.0 0.00 0.00 0.00 100 1011.1
20260506145135 42 52 7.0 0.0 0.00 0.00 0.00 100 1011.1
20260506144614 42 54 2.6 0.0 0.00 0.00 0.00 100 1011.2
20260506144141 42 57 7.8 0.0 0.00 0.00 0.00 100 1011.2
20260506143622 42 64 10.4 0.0 0.00 0.00 0.00 100 1011.2
20260506143101 42 51 8.7 0.0 0.00 0.00 0.00 100 1011.3
20260506142628 42 47 9.6 0.0 0.00 0.00 0.00 100 1011.2
20260506142109 42 60 5.2 0.0 0.00 0.00 0.00 100 1011.4
20260506141635 42 49 10.4 0.0 0.00 0.00 0.00 100 1011.4
20260506141115 42 77 7.0 0.0 0.00 0.00 0.00 100 1011.4
20260506140641 42 63 9.6 0.0 0.00 0.00 0.00 100 1011.3
20260506140121 42 47 8.7 0.0 0.00 0.00 0.00 100 1011.3
20260506135601 42 62 8.7 0.0 0.00 0.00 0.00 100 1011.2
20260506135128 42 66 6.1 0.0 0.00 0.00 0.00 100 1011.1
20260506134608 42 66 8.7 0.0 0.00 0.00 0.00 100 1011.1
20260506134134 42 86 5.2 0.0 0.00 0.00 0.00 100 1011.1
20260506133614 42 60 8.7 0.0 0.00 0.00 0.00 100 1011.0
20260506133140 42 48 11.3 0.0 0.00 0.00 0.00 100 1010.9
20260506132620 42 93 6.1 0.0 0.00 0.00 0.00 100 1011.0
20260506132101 42 46 13.9 0.0 0.00 0.00 0.00 100 1011.0
20260506131627 42 54 10.4 0.0 0.00 0.00 0.00 100 1010.9
20260506131108 43 50 11.3 0.0 0.00 0.00 0.00 100 1010.9
20260506130633 43 54 13.0 0.0 0.00 0.00 0.00 100 1011.0
20260506130113 43 52 9.6 0.0 0.00 0.00 0.00 100 1011.0
20260506125640 43 42 15.6 0.0 0.00 0.00 0.00 100 1011.0
20260506125119 43 61 8.7 0.0 0.00 0.00 0.00 100 1011.1
20260506124645 43 47 10.4 0.0 0.00 0.00 0.00 100 1011.1
20260506124126 43 64 7.0 0.0 0.00 0.00 0.00 100 1011.1
20260506123606 43 28 8.7 0.0 0.00 0.00 0.00 100 1011.2
20260506123133 43 49 7.8 0.0 0.00 0.00 0.00 100 1011.2
20260506122613 43 46 11.3 0.0 0.00 0.00 0.00 100 1011.1
20260506122140 43 63 8.7 0.0 0.00 0.00 0.00 100 1011.2
20260506121618 43 49 7.8 0.0 0.00 0.00 0.00 100 1011.2
20260506121146 43 45 10.4 0.0 0.00 0.00 0.00 100 1011.1
20260506120626 43 55 6.1 0.0 0.00 0.00 0.00 100 1011.1
20260506120105 42 45 8.7 0.0 0.00 0.00 0.00 100 1011.1
20260506115633 42 26 5.2 0.0 0.00 0.00 0.00 100 1011.2
20260506115112 42 43 10.4 0.0 0.00 0.00 0.00 100 1011.2
20260506114639 42 53 9.6 0.0 0.00 0.00 0.00 100 1011.2
20260506114120 42 41 12.2 0.0 0.00 0.00 0.00 100 1011.4
20260506113645 42 58 7.8 0.0 0.00 0.00 0.00 100 1011.1
20260506113126 42 27 9.6 0.0 0.00 0.00 0.00 100 1011.1
20260506112606 42 41 5.2 0.0 0.00 0.00 0.00 100 1011.3
20260506112132 42 42 7.8 0.0 0.00 0.00 0.00 100 1011.1
20260506111613 42 43 8.7 0.0 0.00 0.00 0.00 100 1011.1
20260506111138 42 40 6.1 0.0 0.00 0.00 0.00 100 1011.0
20260506110619 42 42 9.6 0.0 0.00 0.00 0.00 100 1011.0
20260506110144 43 46 5.2 0.0 0.00 0.00 0.00 100 1011.0
20260506105625 43 49 7.8 0.0 0.00 0.00 0.00 100 1011.1
20260506105105 43 61 7.0 0.0 0.00 0.00 0.00 100 1011.2
20260506104631 43 37 3.5 0.0 0.00 0.00 0.00 100 1011.2
20260506104112 43 35 7.0 0.0 0.00 0.00 0.00 100 1011.2
20260506103638 43 42 6.1 0.0 0.00 0.00 0.00 100 1011.4
20260506103118 43 33 4.3 0.0 0.00 0.00 0.00 100 1011.2
20260506102643 43 17 3.5 0.0 0.00 0.00 0.00 100 1011.0
20260506102125 43 47 7.0 0.0 0.00 0.00 0.00 100 1011.1
20260506101604 43 46 7.8 0.0 0.00 0.00 0.00 100 1011.0
20260506101130 43 41 7.0 0.0 0.00 0.00 0.00 100 1011.0
20260506100611 43 64 6.1 0.0 0.00 0.00 0.00 100 1011.3
20260506100137 43 53 6.1 0.0 0.00 0.00 0.00 100 1011.2
20260506095617 43 41 8.7 0.0 0.00 0.00 0.00 100 1011.1
20260506095143 43 52 7.0 0.0 0.00 0.00 0.00 100 1011.2
20260506094624 44 46 7.0 0.0 0.00 0.00 0.00 100 1011.0
20260506094104 44 73 6.1 0.0 0.00 0.00 0.00 100 1010.9
20260506093629 44 86 3.5 0.0 0.00 0.00 0.00 100 1010.8
20260506093110 44 56 7.8 0.0 0.00 0.00 0.00 100 1010.6
20260506092637 44 93 6.1 0.0 0.00 0.00 0.00 100 1010.6
20260506092116 44 59 8.7 0.0 0.00 0.00 0.00 100 1010.4
20260506091643 45 44 10.4 0.0 0.00 0.00 0.00 100 1010.6
20260506091123 45 74 5.2 0.0 0.00 0.00 0.00 100 1010.7
20260506090603 45 57 7.0 0.0 0.00 0.00 0.00 100 1010.7
20260506090130 44 107 4.3 0.0 0.00 0.00 0.00 100 1010.7
20260506085609 44 88 7.8 0.0 0.00 0.00 0.00 100 1010.6
20260506085136 44 83 7.8 0.0 0.00 0.00 0.00 100 1010.6
20260506084617 44 82 5.2 0.0 0.00 0.00 0.00 100 1010.7
20260506084142 44 92 9.6 0.0 0.00 0.00 0.00 100 1010.9
20260506083623 44 90 8.7 0.0 0.00 0.00 0.00 100 1010.9
20260506083103 44 62 4.3 0.0 0.00 0.00 0.00 100 1010.8
20260506082629 44 50 5.2 0.0 0.00 0.00 0.00 100 1010.8
20260506082110 44 103 9.6 0.0 0.00 0.00 0.00 100 1010.8
20260506081635 45 89 9.6 0.0 0.00 0.00 0.00 100 1010.9
20260506081115 44 83 7.8 0.0 0.00 0.00 0.00 100 1010.8
20260506080641 45 90 9.6 0.0 0.00 0.00 0.00 100 1010.9
20260506080122 45 72 9.6 0.0 0.00 0.00 0.00 100 1011.0
20260506073141 45 83 7.8 0.0 0.00 0.00 0.00 100 1011.2
20260506072621 45 58 7.0 0.0 0.00 0.00 0.00 100 1011.0
20260506072101 45 70 7.0 0.0 0.00 0.00 0.00 100 1011.1
20260506071628 45 54 9.6 0.0 0.00 0.00 0.00 100 1011.1
20260506071108 45 70 5.2 0.0 0.00 0.00 0.00 100 1011.1
20260506070633 45 59 6.1 0.0 0.00 0.00 0.00 100 1011.1
20260506070115 45 56 5.2 0.0 0.00 0.00 0.00 100 1011.1
20260506062140 45 51 6.1 0.0 0.00 0.00 0.00 100 1011.4
20260506061621 45 51 3.5 0.0 0.00 0.00 0.00 100 1011.4
20260506061146 45 53 4.3 0.0 0.00 0.00 0.00 100 1011.4
20260506060627 45 39 7.0 0.0 0.00 0.00 0.00 100 1011.4
20260506060106 45 70 6.1 0.0 0.00 0.00 0.00 100 1011.4
20260506051137 46 38 4.3 0.0 0.00 0.00 0.00 100 1011.7
20260506050618 45 54 5.2 0.0 0.00 0.00 0.00 100 1011.7
20260506050144 45 42 3.5 0.0 0.00 0.00 0.00 100 1011.8
20260506045104 45 58 5.2 0.0 0.00 0.00 0.00 100 1011.8
20260506044631 45 65 5.2 0.0 0.00 0.00 0.00 100 1011.7
20260506044112 45 46 3.5 0.0 0.00 0.00 0.00 100 1011.9
20260506043636 44 48 4.3 0.0 0.00 0.00 0.00 100 1011.9
20260506043118 44 62 3.5 0.0 0.00 0.00 0.00 100 1012.0
20260506042645 44 81 4.3 0.0 0.00 0.00 0.00 100 1012.0
20260506042123 44 49 5.2 0.0 0.00 0.00 0.00 100 1011.9
20260506041604 44 43 4.3 0.0 0.00 0.00 0.00 100 1011.9
20260506041130 44 42 4.3 0.0 0.00 0.00 0.00 100 1011.9
20260506040611 44 69 2.6 0.0 0.00 0.00 0.00 100 1012.0
20260506040136 44 83 1.7 0.0 0.00 0.00 0.00 100 1012.1
20260506035616 44 53 3.5 0.0 0.00 0.00 0.00 100 1012.0
20260506035144 44 46 4.3 0.0 0.00 0.00 0.00 100 1012.1
20260506034623 44 68 3.5 0.0 0.00 0.00 0.00 100 1012.1
20260506034104 44 64 4.3 0.0 0.00 0.00 0.00 100 1012.0
20260506033630 44 45 3.5 0.0 0.00 0.00 0.00 100 1012.1
20260506033109 43 54 6.1 0.0 0.00 0.00 0.00 100 1012.1
20260506032636 43 64 2.6 0.0 0.00 0.00 0.00 100 1012.0
20260506032116 43 35 3.5 0.0 0.00 0.00 0.00 100 1012.1
20260506031643 43 38 4.3 0.0 0.00 0.00 0.00 100 1012.1
20260506031123 43 42 3.5 0.0 0.00 0.00 0.00 100 1012.1
20260506030602 43 60 3.5 0.0 0.00 0.00 0.00 100 1012.1
20260506030129 43 21 1.7 0.0 0.00 0.00 0.00 100 1012.0
20260506025609 43 39 5.2 0.0 0.00 0.00 0.00 100 1012.1
20260506025135 43 18 5.2 0.0 0.00 0.00 0.00 100 1012.1
20260506024616 43 45 3.5 0.0 0.00 0.00 0.00 100 1012.1
20260506024142 43 52 2.6 0.0 0.00 0.00 0.00 100 1012.1
20260506023622 43 79 2.6 0.0 0.00 0.00 0.00 100 1012.1
20260506023103 43 27 4.3 0.0 0.00 0.00 0.00 100 1012.1
20260506022628 43 55 4.3 0.0 0.00 0.00 0.00 100 1012.1
20260506022109 44 41 2.6 0.0 0.00 0.00 0.00 100 1012.2
20260506021635 44 25 2.6 0.0 0.00 0.00 0.00 100 1012.3